AirNav   Phillips 66 Aviation Fuel
 
 1056 users online  

OK12 Jones Farm Field Airport
Walters, Oklahoma, USA

GOING TO WALTERS?


FAA INFORMATION EFFECTIVE 24 MAY 2018

Location

FAA Identifier: OK12
Lat/Long: 34-23-57.0000N / 098-15-59.0000W
34-23.950000N / 098-15.983333W
34.3991667 / -98.2663889
(estimated)
Elevation: 1042 ft. / 318 m (estimated)
From city: 3 miles NE of WALTERS, OK
Time zone: UTC -5 (UTC -6 during Standard Time)
Zip code: 73572

Airport Operations

Airport use: Private use. Permission required prior to landing
Activation date: 03/2009
Control tower: no
ARTCC: FORT WORTH CENTER
FSS: MC ALESTER FLIGHT SERVICE STATION
Attendance: UNATNDD
Segmented circle: no
Lights: NON STD LIGHTING AVAIL UPON RQ.

Airport Communications

WX ASOS at LAW (13 nm NW): PHONE 580-581-1351
WX AWOS-3 at DUC (16 nm E): 119.075 (580-252-4547)

Nearby radio navigation aids

VOR radial/distance  VOR name  Freq  Var
LAWr120/9.3LAWTON VOR/DME109.4009E
SPSr023/29.6WICHITA FALLS VORTAC112.7010E

 
NDB name  Hdg/Dist  Freq  Var  ID
POST144/14.342508EPFL .--. ..-. .-..
TRAIL155/23.938809EOFZ --- ..-. --..
SCOTLAND012/38.634405ESKB ... -.- -...

Airport Services

Runway Information

Runway 17/35

Dimensions: 2130 x 75 ft. / 649 x 23 m
Surface: turf
RUNWAY 17  RUNWAY 35
Traffic pattern: leftleft

Airport Ownership and Management from official FAA records

Ownership: Privately-owned
Owner: RONALD C. JONES
180437 N 2650 RD.
WALTERS, OK 73572
Phone 580-875-3970
Manager: RONALD C. JONES
180437 N 2650 RD.
WALTERS, OK 73572
Phone 580-875-3970

Airport Operational Statistics

Aircraft based on the field: 1
Single engine airplanes: 1
    

Additional Remarks

OWNER DESIRES ARPT NOT BE CHARTED.

Instrument Procedures

There are no published instrument procedures at OK12.

Some nearby airports with instrument procedures:

KLAW - Lawton-Fort Sill Regional Airport (13 nm NW)
KDUC - Halliburton Field Airport (16 nm E)
KFSI - Henry Post Army Airfield (Fort Sill) (16 nm NW)
KSPS - Sheppard Air Force Base/Wichita Falls Municipal Airport (27 nm SW)
F14 - Wichita Valley Airport (32 nm SW)
 
Loc | Ops | Rwys | IFR | FBO | Links
Com | Nav | Svcs | Stats | Notes

AirNav Hotels Sweepstakes
 
Aerial photo
WARNING: Photo may not be current or correct
Aerial photo of OK12 (Jones Farm Field Airport)
Photo taken 12-Jul-2017
looking north.

Do you have a better or more recent aerial photo of Jones Farm Field Airport that you would like to share? If so, please send us your photo.

 
Sectional chart

 
Airport distance calculator
Flying to Jones Farm Field Airport? Find the distance to fly.

From to OK12

Sunrise and sunset
Times for 19-Jun-2018
 Local
(UTC-5)
 Zulu
(UTC)
Morning civil twilight05:5210:52
Sunrise06:2211:22
Sunset20:4701:47
Evening civil twilight21:1602:16

Current date and time
Zulu (UTC)  20-Jun-2018 00:11:52
Local (UTC-5)  19-Jun-2018 19:11:52
 
METAR
KLAW 
12nm NW 
192353Z AUTO 12013KT 10SM FEW049 31/20 A2986 RMK AO2 SLP099 T03110200 10328 20294 58017
KDUC 
15nm E 
192355Z AUTO 13015G20KT 10SM SCT050 SCT080 30/21 A2989 RMK AO2 T03010212 10313 20272 403160209
KFSI 
16nm NW 
192356Z AUTO 13015G17KT 10SM SCT048 31/23 A2985 RMK AO2 SLP098 T03120225 10321 20288 57018
TAF
KLAW 
12nm NW 
191732Z 1918/2018 15010KT P6SM BKN050 FM200100 14008KT P6SM FEW050 SCT250 FM200900 16009KT P6SM BKN015
KFSI 
16nm NW 
192100Z 1921/2103 15010G15KT 9999 SCT025 BKN050 QNH2984INS BECMG 2003/2004 16009KT 9999 BKN025 QNH2986INS BECMG 2009/2010 17009KT 9999 BKN015 QNH2985INS BECMG 2015/2016 18009KT 8000 -SHRA BKN015 QNH2986INS BECMG 2018/2019 18009KT 9999 NSW SCT025 BKN060 QNH2978INS TEMPO 2101/2103 17015G25KT 4800 -TSRA BKN020CB TX32/1921Z TN22/2012Z LAST NO AMDS AFT 2003 NEXT 2013
NOTAMs
Click for the latest NOTAMs
NOTAMs are issued by the DoD/FAA and will open in a separate window not controlled by AirNav.

 

 
 

Would you like to see your business listed on this page?

 If your business provides an interesting product or service to pilots, flight crews, aircraft, or users of the Jones Farm Field Airport, you should consider listing it here.  To start the listing process, click on the button below
 
Add a business
 

Other Pages about Jones Farm Field Airport

Update a link
 
Copyright © AirNav, LLC. All rights reserved. Privacy Policy  Contact